Погода в Некоузе

Россия / Ярославская область     57°54′43″N   37°59′48″E
темп.,
°C
ветер,
м/с
пор.,
м/с
влажн.,
%
обл.,
%
осадки,
мм/ч
давл.,
гПа
погр.,
м
16 июня, ср
ср1600:00+17ссз396999 0.0 1009244
03:00+13сз358680 0.0 101182
06:00+15ссз3786100 0.0 1011274
09:00+19с46520 0.0 10131179
12:00+21сз56334 0.0 10132221
15:00+22сз57325 0.0 10142346
18:00+20сз47424 0.0 10151741
21:00+15зсз3658100 0.0 1017115
17 июня, чт
чт1700:00+12сз31062100 0.0 1019223
03:00+10сз24625 0.0 102161
06:00+12сз26662 0.0 1022166
09:00+18сз24435 0.0 1023944
12:00+22зсз46395 0.0 10232133
15:00+24з463822 0.0 10222288
18:00+23зсз364710 0.0 10231655
21:00+17зсз22703 0.0 102413
18 июня, пт
пт1800:00+14зсз22728 0.0 102521
03:00+13зсз2274100 0.0 102612
06:00+16зюз12715 0.0 102673
09:00+21юз235191 0.0 1026594
12:00+25юз44425 0.0 10261490
15:00+26зюз4542100 0.0 10251598
18:00+25зюз375338 0.0 10231221
21:00+20юз38765 0.0 1023150
19 июня, сб
сб1900:00+17зюз312815 0.0 1024270
03:00+15зюз38895 0.0 1025129
06:00+18зюз310795 0.0 1025269
09:00+24з57565 0.0 1025700
12:00+27з57461 0.0 10241791
15:00+28зюз56425 0.0 10232085
18:00+27зюз46490 0.0 10231189
21:00+22юз367387 0.0 1023106
20 июня, вс
вс2000:00+21юз376289 0.0 1023158
03:00+19зюз386781 0.0 1024178
06:00+19юз267885 0.0 1024158
09:00+24юз3460100 0.0 1024498
12:00+28юз34486 0.0 10231561
15:00+29юз45420 0.0 10212112
18:00+28юз355317 0.0 10201555
21:00+22юз34785 0.0 102173